HYDRA-T

decayed
NORAD ID: 62692 Int'l Des: 2025-009 Owner: AMEA/HYDRA Country: E
LEOCIRCULARRETROGRADESSO

About HYDRA-T

Description loading...

Altitude History

Altitude vs Time

uPlot chart will show altitude changes over time

Two-Line Element Set

1 62692U 25009CM 26028.19742799 .10589489 24473-5 20739-2 0 9999
2 62692 97.3569 119.0624 0010828 297.3030 62.7162 16.31546071 58115
Epoch: Jan 28, 2026 • Age: 1617 hours

Current Status

Position data unavailable
Launch Date Jan 14, 2025
Age 1.2 years
Decay Date Jan 28, 2026
Type other

Technical Details

Classification Payload
Mass 0.38 kg
Dry Mass 0.25 kg
Total Mass 0.38 kg
Length 0.08 m
Diameter 0.05 m
Span 0.08 m
Shape Box
Manufacturer AMEA/HYDRA
Bus Type PocketQube 1.5P
Phase Status Reentered
Owner/State AMEA/HYDRA/E

Large Constellations

Loading constellations...